SCP
0 0 0 0 0 0 0 0 0 0 0 0 0 0 0 0 0 0 0 0 0 0 0 0 0 0 0 0 0 0 0 0 0 0 0 0 0 0 0 0 0 0 0 0 0 0 0 0 0
0 0 0 0 0 0 0 0 0 0 0 0 0 0 0 0 0 0 0 0 0 0 0 0 0 0 0 0 0 0 0 0 0 0 0 0 0 0 0 0 0 0 0 0 0 0 0 0 0
0 0 0 0 0 0 0 0 0 0 0 0 0 0 0 0 0 0 0 0 0 0 0 0 0 0 0 0 0 0 0 0 0 0 0 0 0 0 0 0 0 0 0 0 0 0 0 0 0
0 0 0 0 0 0 0 0 0 0 0 0 0 0 0 0 0 0 0 0 0 0 0 0 0 0 0 0 0 0 0 0 0 0 0 0 0 0 0 0 0 0 0 0 0 0 0 0 0
0 0 0 0 0 0 0 0 0 0 0 0 0 0 0 0 0 0 0 0 0 0 0 0 0 0 0 0 0 0 0 0 0 0 -0 -0 -0 0 0 0 0 0 0 0 0 0 0 0 0
0 0 -0 0 0 0 0 0 0 0 0 0 0 0 0 0 0 0 0 0 0 0 0 0 0 0 0 0 0 0 0 0 0 0 0 0 0 0 0 0 0 0 0 0 0 0 0 0 0
0 0 0 0 0 0 0 0 0 0 0 0 0 0 0 0 0 0 0 0 0 0 0 0 0 0 0 0 0 0 0 0 0 0 0 0 0 0 0 0 0 0 0 0 0 0 0 0 0
0 0 0 0 0 0 0 0 0 0 0 0 0 0 0 0 0 0 0 0 0 0 0 0 0 0 0 0 0 0 0 0 -0 -0 0 0 0 0 0 0 0 0 0 0 0 0 0 0 0
0 0 0 0 -0 0 0 0 0 0 0 0 0 0 0 0 0 0 0 0 0 0 0 -0 -0 -0 -0 -0 -0 0 -0 -0 -0 -0 -0 0 0 0 0 0 0 0 0 0 0 0 0 0 0
0 0 0 0 0 0 0 0 0 0 0 0 0 0 0 0 0 0 0 0 0 0 -0 -0 -0 -0 -0 -0 -0 -0 -0 -0 -0 -0 0 0 0 0 0 0 0 0 0 0 0 0 0 0 0
0 0 0 0 0 0 0 0 0 0 0 0 0 0 0 0 0 0 0 0 0 0 -0 -0 -0 -0 -0 -0 -0 -0 -0 0 0 0 0 0 0 0 0 0 0 0 0 0 0 0 0 0 0
0 0 0 0 0 0 0 0 0 0 0 0 0 0 0 0 0 0 0 0 0 0 -0 -0 -0 -0 -0 -0 -0 -0 0 0 0 0 0 0 0 0 0 0 0 0 0 0 0 0 0 0 0
0 0 0 0 0 0 0 0 0 0 0 0 0 0 0 0 0 0 0 0 0 0 -0 -0 -0 -0 -0 -0 -0 0 0 0 0 0 0 0 0 -0 0 0 0 0 0 0 0 0 0 0 0
0 0 0 0 0 0 0 0 0 0 0 0 0 0 0 0 0 0 0 0 0 0 -0 -0 -0 -0 -0 -0 0 0 0 0 0 0 0 0 0 0 0 0 0 0 0 0 0 0 0 0 0
0 0 0 0 0 0 0 0 0 0 0 0 0 0 0 0 0 0 0 0 0 0 -0 -0 -0 -0 0 0 0 0 0 0 0 0 0 0 0 0 0 0 0 0 0 0 0 0 0 0 0
0 0 0 0 0 0 0 0 0 0 0 -0 -0 0 0 0 0 0 0 0 0 0 0 -0 -0 0 0 0 0 0 0 0 0 0 0 0 0 0 0 0 0 0 0 0 0 0 0 0 0
0 0 0 0 0 0 0 0 0 0 0 0 -0 0 0 0 0 0 0 0 0 0 0 0 0 0 0 0 0 0 0 0 0 0 0 0 0 0 0 0 0 0 0 0 0 0 0 0 0
0 0 0 0 0 0 0 0 0 0 0 0 0 0 0 0 0 0 0 0 0 0 0 0 0 0 0 0 0 0 0 0 0 0 0 0 0 0 0 0 0 0 0 0 0 0 0 0 0
0 0 0 0 0 0 0 0 0 0 0 0 0 0 0 -0 -0 0 0 0 0 0 0 0 0 0 -0 0 0 0 0 0 0 0 0 0 0 0 0 0 0 0 0 0 -0 0 0 0 0
0 0 0 0 0 0 0 0 0 0 0 0 0 0 -0 -0 -0 -0 -0 0 0 0 0 0 0 0 -0 0 0 0 0 0 0 0 0 0 0 0 0 0 0 0 0 0 -0 0 0 0 0
0 0 0 0 0 0 0 0 0 0 0 0 0 0 -0 -0 -0 0 0 0 0 0 0 0 0 0 0 0 0 0 0 0 0 0 0 0 0 0 0 0 0 0 0 0 0 0 0 0 0
0 0 0 0 0 0 0 0 0 0 0 0 0 0 0 0 0 0 0 0 0 0 -0 -0 -0 -0 0 0 0 0 0 0 0 0 0 0 0 0 0 0 0 0 0 0 0 0 0 0 0
0 0 0 0 0 0 0 0 0 0 0 0 0 0 0 0 0 0 0 0 0 0 -0 -0 -0 -0 0 0 0 0 0 0 0 0 0 0 0 0 0 0 0 0 0 0 0 0 0 0 0
0 0 0 0 0 0 0 0 0 0 0 0 0 0 0 0 0 0 0 0 0 0 -0 -0 -0 0 0 0 0 0 0 0 0 0 0 0 0 0 0 0 0 0 0 0 0 0 0 0 0
0 0 0 0 0 0 0 0 0 0 0 0 0 0 0 0 0 0 0 0 0 0 0 0 0 0 0 0 0 0 0 0 0 0 0 0 0 0 0 0 0 0 0 0 0 0 0 0 -0
0 0 0 0 0 0 0 0 0 0 0 0 0 0 0 0 0 0 0 0 0 0 0 0 0 0 0 0 0 0 0 0 0 0 0 0 0 0 0 0 0 0 0 0 0 0 0 -0 -0
0 0 0 0 0 0 0 0 0 0 0 0 0 0 0 0 0 0 0 0 0 0 0 0 0 0 0 0 0 0 0 0 0 0 0 0 0 0 0 0 0 0 0 0 0 0 0 0 0
0 0 0 0 0 0 0 0 0 0 0 0 0 0 0 0 0 0 0 0 0 0 0 0 0 0 0 0 0 0 0 0 0 0 0 0 0 0 0 0 0 0 0 0 0 0 0 0 0
0 0 0 0 -0 -0 -0 0 0 0 0 0 0 0 0 0 0 0 0 0 0 0 0 0 0 0 0 0 0 0 0 0 0 0 0 0 0 0 0 0 0 0 0 0 0 0 0 0 0
0 0 0 0 -0 -0 -0 0 0 0 0 0 0 0 0 0 0 0 0 0 0 0 0 0 0 0 0 0 0 0 0 0 0 0 0 0 0 0 0 0 0 0 0 0 0 0 0 0 0
Wind_Speed
2 1 2 3 5 4 2 2 1 1 2 2 4 6 6 5 3 4 1 3 5 4 4 6 9 9 9 9 9 9 9 9 9 9 8 8 8 8 7 7 7 7 7 7 6 6 6 5 6
1 2 3 4 4 3 1 1 0 0 2 4 5 6 6 5 4 5 2 4 5 5 4 5 9 9 9 8 9 9 9 8 8 8 8 8 8 7 7 7 7 7 6 6 7 6 6 6 6
1 3 3 4 3 3 2 1 1 2 2 2 4 5 4 3 4 3 4 6 6 4 4 5 9 9 9 9 8 8 8 8 8 8 8 7 7 7 7 7 7 7 7 7 7 7 7 6 7
3 3 3 4 3 1 2 2 2 3 3 4 4 5 4 2 3 5 7 7 6 4 4 4 9 9 9 8 8 8 8 8 7 7 7 7 7 7 7 7 7 7 7 7 7 7 7 7 6
3 3 4 3 1 1 0 1 1 2 3 4 4 5 3 4 6 9 7 6 6 4 3 4 8 8 8 7 7 7 7 6 7 7 7 6 6 6 7 7 7 8 8 7 7 7 7 7 6
4 4 4 2 1 1 1 0 2 4 4 4 5 4 3 2 6 6 6 5 4 4 3 3 6 7 7 6 6 6 5 5 6 6 6 6 6 6 6 7 7 7 8 8 8 8 8 7 6
3 3 3 3 1 1 0 1 3 4 4 3 4 5 3 2 4 5 5 5 4 3 3 2 2 3 4 4 4 4 4 5 6 6 6 6 6 6 6 7 8 8 8 9 9 8 8 8 7
3 4 3 2 2 1 1 1 2 4 4 4 4 6 5 4 5 5 5 5 3 2 2 2 2 2 3 3 3 4 4 6 7 8 8 8 8 8 8 8 8 8 9 9 10 9 9 8 8
2 4 2 2 3 1 1 2 2 3 5 3 3 3 5 9 8 6 5 3 2 1 1 1 1 1 2 2 3 5 6 7 8 7 8 7 5 5 5 7 8 8 9 10 10 10 10 9 8
3 3 3 2 2 2 1 2 3 4 4 4 5 6 8 9 8 7 5 4 3 2 2 1 1 0 1 2 3 3 3 4 4 3 4 3 3 4 5 8 10 10 10 10 10 10 9 7 4
2 2 2 1 2 2 2 2 2 6 3 4 8 9 9 8 7 6 5 4 4 3 2 2 1 0 0 1 1 2 2 2 3 4 3 3 3 3 4 3 5 6 7 5 6 6 4 4 3
1 1 1 2 3 3 2 2 4 3 3 5 8 10 8 8 7 7 6 4 3 3 3 2 2 1 0 1 1 2 1 2 2 3 3 3 2 3 3 2 3 3 3 3 3 3 4 4 4
1 1 1 3 5 3 3 3 4 3 5 8 9 8 8 7 6 4 4 3 3 3 2 2 2 2 1 2 1 2 1 2 2 2 3 3 2 2 3 2 3 3 3 3 3 4 4 4 4
1 2 2 3 3 2 4 3 4 2 6 7 7 6 6 6 5 4 4 4 3 3 2 2 2 2 3 2 2 1 2 2 2 2 3 3 2 2 2 3 3 3 3 3 3 3 3 3 3
2 4 4 3 2 1 4 4 2 3 7 7 5 4 4 4 4 5 5 5 5 3 2 2 3 3 3 3 2 2 2 2 2 2 2 3 3 2 2 2 3 3 3 3 3 4 3 3 4
3 4 3 2 2 2 4 2 1 4 7 5 4 3 3 3 4 4 4 4 4 4 3 3 3 4 4 3 3 2 2 2 2 2 2 3 3 3 3 3 3 4 3 3 3 3 3 4 4
3 3 2 2 2 2 3 2 1 3 6 4 4 3 3 2 2 3 4 5 4 4 4 4 4 5 4 4 4 3 3 3 2 2 2 3 3 3 3 3 3 4 3 3 3 3 2 3 4
2 3 2 1 1 3 4 2 1 1 4 3 2 2 2 2 3 2 4 5 5 4 5 5 5 5 5 4 3 3 3 2 2 2 2 3 3 3 3 3 4 4 3 4 4 3 3 2 3
3 4 3 1 0 4 4 3 1 1 2 2 2 2 2 2 1 1 3 5 5 5 5 5 5 4 3 2 2 2 1 1 2 2 3 3 3 3 3 3 3 4 3 3 4 3 4 4 3
4 4 3 2 2 3 5 3 2 2 1 2 4 3 3 2 1 2 3 4 5 5 5 5 5 4 3 2 2 2 1 1 1 2 3 3 3 3 2 3 3 3 3 5 5 3 2 3 4
3 4 4 3 3 4 5 4 1 1 1 1 1 2 2 4 3 3 3 3 4 4 5 5 4 4 3 3 3 3 3 3 3 3 3 4 4 3 3 3 2 3 3 3 4 3 3 3 3
2 3 5 4 4 2 2 1 2 1 1 0 1 1 2 2 3 3 3 3 4 4 4 5 5 4 3 3 3 3 2 1 1 1 2 3 4 4 3 3 3 3 2 3 3 3 2 2 3
4 4 3 3 4 3 2 3 4 1 3 4 3 2 2 2 4 4 4 4 3 4 5 5 5 4 3 3 4 4 3 1 1 1 3 3 3 4 4 3 3 3 2 2 3 3 3 2 2
6 5 5 4 3 1 2 3 4 5 7 5 4 3 2 3 3 3 3 4 4 4 5 5 6 4 3 4 4 4 4 2 2 3 3 3 3 3 4 3 3 3 2 2 2 2 3 2 2
4 5 3 1 1 3 2 2 7 5 5 6 7 5 3 3 4 4 4 4 4 5 5 5 6 4 3 4 3 3 3 3 2 1 1 2 2 2 4 3 2 2 2 2 2 2 3 2 2
4 5 6 5 5 2 0 4 6 2 2 4 5 5 4 4 3 4 4 4 5 5 5 5 6 4 3 3 3 2 2 2 1 1 0 1 1 2 2 2 2 2 2 3 2 2 2 2 2
5 3 3 6 3 2 3 4 5 1 3 4 6 6 5 5 4 4 4 4 4 5 5 5 6 5 4 4 3 3 2 2 2 1 1 1 1 2 2 2 2 2 3 3 2 2 2 3 2
4 6 4 5 5 2 2 4 5 6 7 6 7 7 6 5 5 4 4 4 4 4 4 5 5 5 4 3 3 3 2 2 2 2 2 2 2 3 3 3 3 3 3 3 3 2 2 3 3
4 3 3 4 4 6 3 7 7 10 11 11 10 9 8 7 6 5 4 4 4 4 5 5 5 5 4 3 3 3 2 2 2 2 2 2 2 3 3 2 3 3 3 3 3 3 3 3 3
5 6 6 5 3 4 3 7 3 7 9 10 9 8 7 6 5 5 5 5 5 5 4 5 4 4 3 3 4 3 3 3 3 2 2 2 3 3 3 3 3 3 3 3 3 3 3 3 3
Wind_Direction
304 80 87 66 60 56 43 334 311 344 55 51 63 73 80 67 79 120 135 132 125 116 111 116 115 112 106 100 95 91 86 82 80 77 76 74 69 64 60 55 51 45 42 38 34 27 23 22 22
165 104 66 66 85 81 2 300 294 78 141 136 75 71 70 68 70 103 123 129 118 116 111 117 116 112 108 102 95 91 87 83 81 78 73 70 66 60 56 51 45 39 35 32 28 21 17 15 14
127 83 83 78 95 142 163 210 156 91 99 91 73 58 71 86 112 130 148 131 114 107 100 116 115 111 107 102 97 93 89 85 82 77 72 66 59 53 48 44 39 35 30 28 27 20 15 11 10
82 59 63 75 91 204 175 177 150 124 78 58 88 68 59 61 135 136 130 122 112 104 101 118 117 112 108 104 101 97 90 85 80 74 68 60 53 48 42 36 31 28 24 23 20 13 7 5 3
66 82 71 70 56 333 355 156 140 94 73 64 88 86 50 15 104 121 124 120 121 117 108 119 120 116 112 108 102 93 86 80 72 63 55 46 40 37 33 28 24 21 17 14 12 4 359 354 352
58 68 85 103 60 32 24 336 102 94 94 89 86 89 60 90 116 128 126 122 123 124 112 107 121 121 118 112 105 96 84 68 55 44 36 30 24 22 21 20 15 11 10 10 8 4 0 357 354
92 88 104 121 104 53 65 95 113 113 107 106 107 96 101 133 144 131 120 113 109 107 100 77 72 95 113 110 101 88 69 51 39 31 29 25 19 14 11 10 6 5 7 8 6 2 1 1 359
107 95 87 106 119 111 350 87 94 107 106 107 108 127 159 178 140 110 96 93 93 88 83 73 54 49 41 28 44 50 41 34 30 29 26 26 23 17 12 7 1 1 5 8 7 8 9 8 6
77 78 127 161 146 139 36 82 65 78 99 81 88 132 144 133 122 109 96 85 95 120 62 72 57 46 36 8 15 25 25 24 25 24 22 24 13 8 9 8 11 12 13 14 15 16 14 15 11
84 121 182 176 155 142 100 94 112 92 81 77 77 84 110 126 136 142 150 160 171 196 222 215 195 53 26 3 26 22 26 24 21 20 23 24 22 17 26 19 24 25 24 19 18 19 17 17 6
104 155 164 141 133 118 104 91 80 112 112 158 148 140 134 139 151 163 172 178 191 204 215 203 203 190 65 16 23 28 25 23 18 24 30 40 36 24 24 19 13 11 17 13 7 9 4 4 4
81 359 133 109 95 75 89 99 90 108 168 153 146 143 143 154 169 178 182 186 186 190 214 210 177 144 113 79 56 53 40 31 27 23 35 47 39 27 17 18 5 6 360 360 1 357 356 3 5
89 44 42 80 83 76 79 83 89 74 100 113 123 135 153 169 182 187 179 178 177 185 198 184 151 140 130 101 77 76 57 45 40 36 32 52 55 36 21 12 11 4 -0 1 356 358 0 4 2
155 93 70 80 82 73 95 71 81 106 116 120 135 155 170 181 182 167 172 182 185 187 178 156 146 146 127 107 93 81 69 60 52 40 35 48 54 44 30 19 10 2 354 354 357 359 1 359 0
83 72 59 58 92 91 103 62 106 150 129 135 157 172 179 197 189 187 188 182 180 176 166 157 147 124 117 111 107 94 81 71 58 42 38 47 49 42 37 26 11 352 347 356 4 5 9 12 12
72 72 75 1 84 103 113 134 176 145 136 151 169 180 189 210 211 203 183 170 164 156 153 144 126 114 108 101 96 84 73 66 48 36 34 37 40 44 42 30 6 350 357 7 9 10 10 7 6
49 104 104 26 25 92 110 148 189 140 144 166 180 186 193 215 238 212 178 163 158 155 142 119 110 111 105 95 86 77 65 53 36 31 28 25 30 39 47 29 2 359 11 13 10 19 15 4 359
150 131 115 108 12 95 102 95 52 150 151 168 174 179 191 202 231 191 156 148 143 135 125 118 106 102 100 89 78 64 53 37 27 23 19 24 25 34 41 30 11 10 18 13 11 13 17 14 355
134 119 112 120 88 103 107 90 53 92 137 156 177 177 193 226 245 118 130 133 127 126 126 128 117 114 108 96 93 85 58 17 9 5 12 17 20 26 36 29 17 17 23 11 7 10 16 11 358
116 107 97 57 56 97 93 67 49 62 172 188 188 186 183 173 99 98 114 121 133 140 137 131 128 125 118 110 113 113 111 63 360 347 4 13 14 12 23 32 19 13 16 16 16 21 17 12 19
120 147 157 140 79 60 83 33 15 351 23 82 131 165 173 165 160 143 124 126 130 139 147 141 131 125 120 108 92 72 53 32 15 6 358 356 3 12 21 25 23 17 25 17 12 20 36 19 12
163 177 164 140 108 56 90 137 270 272 309 213 211 175 191 169 157 151 142 137 142 151 140 131 127 119 111 109 104 102 91 67 339 325 336 347 5 12 15 20 24 23 23 19 10 31 32 45 19
159 129 112 110 109 77 41 126 267 224 231 230 222 200 189 176 165 162 157 144 132 131 130 126 118 108 104 102 107 101 92 86 5 4 9 5 1 7 12 19 22 18 16 14 18 25 35 44 48
126 92 64 47 76 124 217 159 248 220 211 201 196 186 177 167 147 139 120 110 104 108 118 123 117 106 103 101 99 105 106 92 59 30 15 1 353 355 5 13 19 15 13 8 9 22 31 34 46
110 112 99 68 40 239 222 190 241 236 211 188 181 179 167 152 143 135 123 124 123 122 125 128 125 118 110 104 99 104 109 103 90 54 19 6 358 352 346 0 5 6 3 7 15 28 22 19 26
172 164 158 168 186 236 217 229 254 273 193 150 149 151 145 145 146 141 141 141 139 134 130 132 131 127 120 114 109 96 98 98 86 67 56 357 318 311 327 353 2 1 5 16 23 24 11 19 16
145 171 156 121 115 112 262 281 303 135 131 140 144 147 160 163 156 147 140 137 140 139 142 143 136 126 122 120 109 95 89 91 82 54 43 6 333 336 351 2 9 5 9 15 25 23 10 13 12
150 145 116 124 137 179 267 253 230 204 193 180 170 173 174 163 153 147 146 144 143 139 129 122 123 124 121 120 115 106 95 86 79 66 39 13 358 358 6 13 14 11 12 15 26 14 8 21 5
145 141 129 117 144 151 204 256 221 196 187 185 188 184 176 170 165 159 150 140 131 119 119 117 116 113 109 111 109 97 83 75 72 60 25 10 10 11 15 13 23 19 14 15 25 15 17 21 4
174 174 155 152 187 170 171 263 268 197 186 180 179 176 172 164 157 152 143 132 125 123 122 121 121 119 121 119 109 98 84 75 67 47 23 28 26 18 21 31 33 24 18 16 18 5 11 13 355